User: anonymous   Login
Location: Waldport
(44.4270°N, 124.0680°W)
Time: 19:04:45
(UTC-07:00)
Language:

Cosmos 1023 Rocket - Orbit

View from above orbital plane
View from above orbital plane
View from above satellite
View from above satellite

Ground track
Ground track

The orbit data is extracted from the following two-line orbital elements,

1 10962U 78063B   15209.14767940  .00000147  00000-0  53747-4 0  9999
2 10962 074.0792 052.6352 0024694 134.7080 225.6092 14.40927030946476
Epoch (UTC): 28 July 2015 03:32:39
Eccentricity: 0.0024694
inclination: 74.0792°
perigee height: 738 km
apogee height: 773 km
right ascension of ascending node: 52.6352°
argument of perigee: 134.7080°
revolutions per day: 14.40927030
mean anomaly at epoch: 225.6092°
orbit number at epoch: 94647

The dashed part of the orbit path shows where the satellite is in the earth's shadow,  

DLR